Regional Weather Roundup
Issued by NWS

Home | Current Version | Previous Version | Text Only | Print | Product List | Glossary Off
Versions: 1 2 3 4 5 6 7 8 9 10 11 12 13 14 15 16 17 18 19 20 21 22 23 24 25 26 27 28 29 30 31 32 33 34 35 36 37 38 39 40 41 42 43 44 45 46 47 48 49 50

000
ASUS45 KBOU 171107
RWRCO

WEATHER ROUNDUP FOR COLORADO
NATIONAL WEATHER SERVICE DENVER/BOULDER CO
500 AM MDT WED SEP 17 2014

NOTE: "FAIR" INDICATES FEW OR NO CLOUDS BELOW 12000 FEET WITH NO
SIGNIFICANT WEATHER AND/OR OBSTRUCTIONS TO VISIBILITY.

COZ001>005-013-030-031-171200-
...NORTHWEST COLORADO...

CITY           SKY/WX    TMP DP  RH WIND       PRES   REMARKS
CRAIG          CLEAR     42  37  82 CALM      30.19S
HAYDEN         CLEAR     50  34  53 E12       30.20S
MEEKER         CLEAR     49  38  65 CALM      30.20S
MOUNT WERNER   NOT AVBL
STEAMBOAT SPGS CLEAR     44  36  72 CALM      30.24R
WALDEN         MOCLDY    43  32  65 SE5       30.30S
$$

COZ006>008-011-171200-
...WEST CENTRAL VALLEYS...

CITY           SKY/WX    TMP DP  RH WIND       PRES   REMARKS
GRAND JUNCTION PTCLDY    58  43  57 SE10      30.07S
MONTROSE       PTCLDY    54  42  64 SE8       30.17R
EAGLE          PTCLDY    45  39  81 CALM      30.28R
RIFLE          CLEAR     49  44  83 CALM      30.16S
DELTA          PTCLDY    58  42  54 E6        30.13S
NUCLA          PTCLDY    59  37  44 E7        30.19F
$$

COZ017>023-064>068-171200-
...SOUTHWEST COLORADO...

CITY           SKY/WX    TMP DP  RH WIND       PRES   REMARKS
DURANGO        MOCLDY    52  44  74 CALM      30.22F
CORTEZ         CLEAR     52  48  86 CALM      30.17S
PAGOSA SPRINGS MOCLDY    47  41  81 CALM      30.29F
TELLURIDE      NOT AVBL
WOLF CREEK PAS MOCLDY    45  32  61 NE13      30.54S
$$

COZ009-010-012-014-032>034-037-058>063-171200-
...CENTRAL COLORADO...

CITY           SKY/WX    TMP DP  RH WIND       PRES   REMARKS
ASPEN          PTCLDY    47  35  63 SW8         N/A
BUENA VISTA    PTCLDY    48  33  56 N6        30.32S
COPPER MTN     PTCLDY    52  28  40 W8        30.57S
BERTHOUD PASS  FAIR      39  37  93 NW10      30.61R
COTTONWOOD PAS PTCLDY    55  30  38 SE3       30.43S
GUNNISON       PTCLDY    41  34  75 CALM      30.34S
KREMMLING      CLEAR     36  32  87 CALM      30.33R
LEADVILLE      PTCLDY    37  30  75 CALM      30.43F
MONARCH PASS   MOCLDY    45  32  61 SW12      30.66S
SALIDA         PTCLDY    54  35  48 NW7       30.37S
SUNLIGHT       CLEAR     54  34  47 CALM      30.50S
WILKERSON PASS NOT AVBL
$$

COZ069>075-171200-
...SAN LUIS VALLEY/SANGRE DE CRISTO MOUNTAINS...

CITY           SKY/WX    TMP DP  RH WIND       PRES   REMARKS
ALAMOSA        CLOUDY    48  41  76 CALM      30.28S
LA VETA PASS   NOT AVBL
SAGUACHE       PTCLDY    48  32  53 N9        30.31F
$$

COZ035-036-038>040-171200-
...NORTHERN COLORADO FRONT RANGE...

CITY           SKY/WX    TMP DP  RH WIND       PRES   REMARKS
DENVER INTL AP PTCLDY    59  40  49 SW14      30.08S
DMNS CITY PARK   N/A     59  41  51 S3        30.08R
AURORA         PTCLDY    59  38  46 S12       30.10S
FRONT RANGE AP CLEAR     59  41  51 W8        30.09R
ERIE MUNI ARPT CLEAR     49  43  81 CALM      30.07S
BOULDER MUN AP CLEAR     54  45  71 CALM      30.07S
CENTENNIAL     PTCLDY    56  39  53 S7        30.11S
BROOMFIELD     CLEAR     61  36  39 CALM      30.10S
FORT COLLINS   CLEAR     55  43  62 CALM      30.07S
LONGMONT       CLEAR     51  43  76 CALM      30.08S
$$

COZ041-046-047-076>085-087-088-171200-
...PIKES PEAK/PALMER DIVIDE AND SOUTHERN FOOTHILLS...

CITY           SKY/WX    TMP DP  RH WIND       PRES   REMARKS
COLO. SPRINGS  PTCLDY    57  37  47 N9        30.15F
A. F. ACADEMY  PTCLDY    48  37  66 N10       30.18S
ELLICOTT       NOT AVBL
FALCON         PTCLDY    51  37  59 W8        30.20S
FORT CARSON    MOCLDY    57  39  50 NW9       30.12F
LIMON          CLEAR     45  41  86 N6        30.09F
MONUMENT HILL  CLEAR     52  34  50 SW7       30.20S
TRINIDAD       MOCLDY    60  48  64 SW15      30.12F
$$

COZ042>045-048>051-090-091-171200-
...NORTHEAST COLORADO...

CITY           SKY/WX    TMP DP  RH WIND       PRES   REMARKS
GREELEY ARPT   CLEAR     46  37  71 NW6       30.05S
AKRON          CLEAR     53  43  68 NW8       30.03F
BURLINGTON     CLEAR     50  46  86 W5        30.01S
WRAY           CLEAR     52  48  87 W7        29.98S
STERLING       CLEAR     50  46  87 SW5       29.99F
HOLYOKE        CLEAR     52  46  82 CALM      29.98S
FORT MORGAN    CLEAR     52  41  65 CALM      30.03F
$$

COZ086-089-092>099-171200-
...SOUTHEAST COLORADO...

CITY           SKY/WX    TMP DP  RH WIND       PRES   REMARKS
PUEBLO         MOCLDY    56  41  57 W5        30.05F
LA JUNTA       MOCLDY    53  45  74 W7        30.02S
LAMAR          MOCLDY    52  50  93 W6        29.98S
SPRINGFIELD      N/A     56  51  84 W6        30.02S
$$



USA.gov is the U.S. government's official web portal to all federal, state and local government web resources and services.